RH
41 39 37 36 35 36 37 39 41 42 42 41 39 37 36 35 35 33 30 23 18 13 10 9 8 7 7 7 7 7 7 7 7 7 8 8 8 9 9 10 10 11 11 12 12 12 12 11 10 8 7 5 5 5 5 5 5 6 6 7 7 8 9 9 10 10 11 11 12 12 13 13 13 14 14 14 14 14 15 15 15 16 16 17 17 19
42 40 38 37 38 38 40 41 42 42 42 41 39 37 36 35 34 31 27 21 15 11 9 8 8 7 7 7 7 7 7 7 7 8 8 8 9 9 10 10 11 11 12 12 12 12 11 10 9 7 6 5 5 5 5 5 6 6 7 7 8 8 9 9 10 10 11 12 12 13 13 13 13 14 14 14 14 14 15 15 16 16 16 17 17 17
44 42 41 39 39 40 41 42 43 43 42 41 39 37 36 34 31 27 22 17 13 10 8 8 8 8 8 8 8 8 7 7 8 8 8 9 9 10 10 11 11 12 12 13 12 12 10 9 7 6 5 5 5 5 5 6 6 7 7 8 8 9 9 10 10 11 11 12 12 13 13 13 13 14 14 14 14 14 14 15 15 15 16 16 16 17
46 44 43 41 41 41 42 43 43 43 42 40 39 37 35 32 28 23 18 14 11 9 8 8 8 8 8 8 8 8 7 8 8 8 9 9 10 10 11 11 12 12 13 13 12 11 10 8 6 5 5 5 5 5 5 6 6 7 7 8 8 9 9 10 10 11 11 12 12 13 13 13 13 13 13 14 14 14 14 14 14 15 15 15 15 16
48 46 44 43 43 43 43 44 44 43 42 40 39 37 35 30 25 20 16 12 10 9 8 8 8 8 8 8 8 8 8 8 8 9 9 10 10 10 11 12 12 13 13 12 11 10 8 7 6 5 5 5 5 5 6 6 7 7 8 8 9 9 10 10 11 11 11 12 12 13 13 13 13 13 13 14 14 14 14 14 14 14 14 14 14 14
49 48 46 44 44 44 44 45 45 44 42 41 39 37 34 29 24 18 14 11 10 9 9 8 8 8 8 8 8 8 8 8 9 9 10 10 10 11 12 13 13 13 12 11 10 9 7 6 5 5 5 5 5 6 6 6 7 7 8 8 9 9 10 10 11 11 12 12 12 13 13 13 14 14 14 14 14 15 15 15 15 15 15 15 15 15
51 49 47 46 45 45 45 45 45 43 42 40 39 37 34 29 23 18 13 11 10 9 8 8 8 8 8 8 8 8 8 9 9 10 10 11 11 12 13 13 13 12 11 10 9 7 6 5 5 5 5 5 6 6 6 7 7 8 8 9 9 10 10 11 11 12 12 13 13 13 14 14 15 15 15 16 16 17 17 18 18 18 19 19 19 19
52 51 49 47 46 46 45 45 44 43 41 39 38 36 34 28 22 17 14 12 10 9 8 7 8 8 8 8 8 8 9 9 10 10 11 11 12 12 13 13 12 11 10 9 7 6 5 5 5 5 5 5 6 6 7 7 8 8 9 9 10 10 11 11 12 13 13 14 14 15 15 16 17 17 18 19 19 20 21 22 23 24 25 26 27 28
53 52 50 49 48 47 46 45 43 42 41 39 38 35 32 27 22 17 14 11 10 8 7 7 7 8 8 8 8 9 9 10 10 10 11 12 12 13 13 12 11 10 8 7 6 5 5 5 5 5 5 6 6 6 7 8 8 9 9 10 11 11 12 13 13 14 15 15 16 17 18 19 20 21 22 23 25 26 27 29 31 32 34 35 37 39
55 54 52 50 48 47 46 44 43 42 41 40 39 36 32 27 22 17 13 11 9 8 7 7 7 8 8 8 9 9 10 10 11 11 12 12 13 13 13 11 10 8 7 6 6 5 5 5 5 5 6 6 6 7 8 8 9 10 10 11 12 13 13 14 15 16 17 18 19 20 21 22 24 25 27 29 30 32 34 36 38 40 42 44 46 48
57 55 53 51 49 46 45 44 43 43 42 42 41 39 35 29 23 17 12 10 8 7 7 7 8 8 8 9 9 10 10 11 11 12 12 13 13 13 12 10 8 7 6 6 5 5 5 5 5 6 6 6 7 8 9 9 10 11 12 13 14 14 15 16 17 18 20 21 22 24 25 27 29 30 32 34 36 37 39 41 43 45 47 49 52 54
58 55 53 51 50 48 45 44 44 44 44 43 42 39 35 30 24 17 10 8 7 8 8 8 8 8 9 9 10 10 11 11 12 12 12 13 12 11 10 8 7 6 6 5 5 5 5 5 6 6 6 7 8 9 10 11 12 13 14 15 16 17 18 19 20 22 23 25 26 28 30 31 33 35 36 38 39 41 43 44 46 48 50 53 55 57
59 56 53 52 50 48 46 45 46 47 48 47 43 38 32 27 20 13 8 7 8 8 8 8 8 9 9 10 10 11 11 12 12 12 12 12 11 10 8 7 6 6 5 5 5 5 6 6 6 7 7 8 9 10 12 13 14 15 16 17 18 19 20 22 23 25 27 28 30 31 33 34 36 37 39 40 42 43 45 47 48 50 52 54 57 59
59 57 54 52 50 48 46 47 50 54 56 51 44 35 27 20 14 10 8 8 8 9 8 8 9 9 10 10 11 11 12 13 13 12 11 10 10 9 7 6 6 6 6 5 6 6 6 6 7 8 9 10 11 12 14 15 16 17 18 19 20 21 23 25 26 28 29 31 32 33 35 36 37 38 40 42 43 45 46 48 50 51 53 55 57 59
61 58 55 52 50 48 48 52 58 62 61 52 43 32 22 15 10 8 8 8 8 9 8 9 9 10 10 11 11 12 13 13 13 12 11 9 8 7 6 6 6 6 6 6 6 6 6 7 8 9 11 12 13 15 16 17 18 19 20 21 22 24 25 27 28 29 31 32 33 34 35 37 38 39 41 43 44 46 48 49 51 52 54 55 57 58
64 60 55 51 49 50 53 60 66 68 62 51 38 27 16 11 9 8 8 8 9 9 9 9 10 10 11 11 12 13 13 14 13 12 10 8 7 6 6 6 6 6 6 6 6 7 8 9 10 11 13 15 16 17 18 19 20 21 22 23 24 25 26 28 29 30 31 32 33 34 36 37 39 40 42 43 45 47 49 50 51 53 54 55 57 58
66 60 55 51 51 55 63 70 72 68 58 44 31 20 12 9 8 8 9 9 9 9 9 9 10 11 12 12 13 14 14 14 13 11 9 7 6 6 6 6 6 6 6 6 7 8 9 11 12 14 16 17 18 19 20 21 21 22 23 24 25 26 27 29 29 30 31 32 33 35 36 38 39 41 43 45 46 48 50 51 52 53 54 55 57 58
66 60 53 52 56 63 73 76 73 64 50 35 23 14 9 8 8 9 9 9 9 9 9 10 11 11 12 13 14 14 15 14 13 10 8 7 6 6 6 6 6 6 7 8 9 10 12 13 15 17 18 19 20 21 21 22 23 24 25 25 26 27 28 29 30 31 31 33 34 35 37 38 40 42 44 46 47 49 50 51 52 53 54 55 57 58
65 58 52 55 63 72 80 78 70 56 39 25 15 10 7 8 9 9 9 9 9 9 10 11 12 12 13 14 15 15 15 14 12 9 7 6 6 6 6 6 6 7 8 9 11 13 15 16 18 19 20 21 21 22 23 24 25 26 26 27 28 29 30 31 31 32 32 33 35 36 37 39 41 43 45 46 48 49 50 51 51 52 54 55 57 59
64 57 55 62 70 78 82 74 62 45 28 17 10 7 7 8 9 9 9 9 9 10 11 12 13 13 14 14 15 15 15 13 10 8 6 6 6 6 6 6 7 8 10 12 14 16 18 19 20 21 22 23 24 25 26 26 27 27 28 28 29 30 31 32 33 33 34 35 36 37 38 40 42 44 45 47 48 49 50 50 51 52 53 55 57 59
63 60 64 70 76 81 80 68 52 35 18 10 6 6 8 9 9 9 9 9 10 11 12 13 13 14 14 14 14 14 13 11 9 7 6 6 6 6 6 7 8 10 12 15 17 20 21 22 22 23 24 25 26 27 28 29 29 29 30 30 31 32 33 34 34 35 35 36 37 39 40 42 43 45 46 47 48 49 49 49 50 51 53 54 56 58
65 66 71 76 79 79 73 58 41 24 10 6 6 7 9 9 9 9 9 10 11 12 12 13 14 14 14 14 13 13 11 9 7 6 6 6 6 6 7 8 9 11 14 17 20 22 24 25 25 26 26 28 29 31 31 31 31 31 31 32 33 34 35 36 36 37 37 38 39 40 42 43 44 45 46 47 48 48 48 49 50 51 52 54 56 58
71 72 77 82 82 77 66 47 29 15 7 6 6 7 8 8 8 9 10 10 11 12 13 14 14 15 14 13 12 11 9 8 7 6 5 6 6 7 8 9 11 13 16 18 20 23 25 28 29 30 30 32 33 34 34 34 33 33 34 34 35 36 37 38 38 39 40 40 41 42 43 44 45 46 46 47 47 47 48 48 49 51 52 53 55 57
78 80 84 86 81 70 53 33 18 10 6 6 7 7 8 8 9 10 11 12 13 13 14 15 15 15 13 12 10 9 7 7 6 6 6 6 7 8 9 10 12 14 16 18 19 21 25 29 32 34 35 35 36 36 36 36 36 36 36 37 38 39 40 40 41 41 42 43 43 44 44 44 45 45 46 46 47 47 48 48 49 50 51 52 54 56
84 86 88 82 71 55 36 21 12 7 7 7 7 8 8 9 10 11 12 13 14 14 15 15 15 13 12 10 9 7 6 6 6 6 6 7 8 9 11 12 13 14 15 16 17 20 23 29 34 36 38 38 37 37 37 37 38 38 39 40 41 42 42 43 43 44 44 45 45 45 45 45 45 45 45 46 47 47 48 49 50 50 51 52 53 55
88 88 85 73 57 40 23 14 9 7 7 8 8 8 9 10 11 12 13 14 14 15 16 15 14 12 10 8 7 6 6 6 6 6 7 8 9 11 13 14 14 14 13 14 16 19 22 28 33 36 38 38 37 36 36 37 39 40 42 43 44 44 45 45 46 46 47 47 47 47 46 45 45 45 45 46 47 48 49 50 50 50 51 51 52 54
90 85 76 59 41 25 14 10 8 8 8 8 8 9 10 11 12 13 14 14 15 15 16 15 13 11 9 7 6 6 6 6 6 7 8 10 11 12 14 14 14 13 12 13 15 18 22 26 30 33 35 36 36 36 37 38 40 43 44 46 46 47 48 48 48 49 49 49 49 48 47 46 45 45 45 47 48 49 50 50 51 51 51 52 52 53
87 78 62 43 27 16 9 8 8 8 8 8 9 9 10 12 13 14 15 15 16 16 15 13 11 10 8 7 6 6 6 6 7 8 10 11 13 14 15 15 14 13 13 13 15 18 22 25 27 29 32 35 36 38 39 41 43 45 47 48 49 49 50 50 51 51 51 51 50 49 48 46 46 46 47 48 50 51 51 51 52 52 53 53 53 53
80 65 45 28 17 11 8 8 8 8 8 9 9 10 12 13 14 15 15 16 16 15 13 11 10 8 7 6 6 6 6 7 8 9 11 13 14 15 15 15 15 14 14 14 15 17 20 23 26 27 30 34 37 40 42 43 46 48 50 51 51 51 51 52 52 53 53 52 51 50 49 47 47 47 49 50 51 52 53 53 53 54 54 55 55 55
69 50 30 19 13 10 9 9 9 8 8 9 10 12 13 14 15 16 17 17 15 13 11 10 8 7 6 6 6 6 7 8 9 11 12 14 15 16 15 15 15 16 16 16 15 15 17 21 25 28 31 35 39 42 44 46 48 50 51 52 52 53 53 53 54 54 54 54 53 52 50 49 49 50 51 52 54 54 55 55 56 56 57 57 57 57
58 38 22 15 12 11 10 9 8 9 9 10 12 13 14 15 16 17 17 16 14 12 10 8 7 6 6 6 6 7 8 10 11 13 14 16 16 16 16 15 16 17 18 18 17 16 15 17 22 28 34 39 43 46 48 49 51 51 52 53 53 54 54 55 55 56 56 56 55 53 52 51 51 52 54 56 57 57 57 58 58 59 59 59 59 59
50 33 20 16 13 11 10 9 9 9 10 12 13 14 15 16 17 17 17 15 13 11 9 7 6 6 6 6 7 8 10 11 13 15 16 17 17 17 17 17 17 18 20 21 20 19 17 18 21 27 35 42 46 49 50 52 53 53 53 54 54 55 55 56 57 58 58 58 57 56 55 54 54 56 58 59 60 60 60 60 60 61 61 61 60 60
47 33 23 17 13 10 9 9 9 11 12 13 14 15 16 17 17 17 16 14 11 9 7 6 6 6 6 7 9 10 12 14 15 17 17 17 17 17 18 19 19 20 21 21 21 21 21 22 24 29 36 44 49 52 53 54 55 55 56 55 56 56 57 59 60 60 61 60 60 58 57 57 58 59 61 63 63 63 62 62 62 62 62 62 61 60
46 35 24 17 12 10 8 9 11 12 14 15 15 16 17 17 17 16 14 12 9 7 6 6 6 6 7 8 10 12 15 17 18 18 18 18 18 18 20 21 22 22 21 21 21 22 23 26 29 34 38 45 51 55 56 56 57 58 58 58 58 59 60 61 63 64 64 63 62 61 60 60 60 62 64 65 65 64 63 62 62 63 63 63 62 61
45 33 23 17 12 10 9 10 12 14 15 16 16 17 17 17 16 14 11 9 7 6 5 6 6 7 8 9 11 14 17 18 19 19 19 19 19 20 21 23 24 23 22 22 23 24 26 30 35 39 43 47 52 56 59 59 60 61 62 62 62 62 63 64 65 66 67 66 66 64 62 62 62 63 65 66 66 64 63 62 63 64 64 64 63 62
40 29 21 15 12 10 10 12 13 15 16 17 17 17 17 15 13 11 9 7 6 5 6 6 7 8 9 11 13 16 18 19 20 20 20 20 21 22 23 25 25 25 24 25 26 28 31 35 40 44 48 50 53 56 59 61 63 64 66 66 66 66 66 67 68 69 70 70 69 68 65 64 64 64 66 66 66 65 64 63 63 64 66 66 65 64
35 25 18 13 11 11 12 13 15 16 16 17 17 16 15 13 10 8 7 6 5 6 6 7 8 10 11 13 16 18 19 19 20 20 21 22 23 24 25 26 27 28 28 29 31 34 38 41 45 49 52 54 56 57 58 60 63 65 68 69 70 70 70 71 72 73 74 74 73 71 68 66 65 65 66 67 68 67 66 64 64 65 66 67 67 66
30 21 15 13 12 12 13 14 15 16 17 17 16 15 12 10 8 6 5 5 6 6 7 8 10 11 14 16 18 19 19 20 20 21 22 24 25 26 26 27 29 31 34 37 39 42 45 48 51 52 54 56 58 59 60 60 62 64 68 70 72 74 74 74 75 76 76 76 76 74 72 69 68 66 67 68 69 69 68 67 66 66 68 68 69 68
26 19 14 13 13 13 14 15 16 17 17 16 15 12 10 8 6 5 5 6 6 7 8 10 12 14 16 18 19 19 20 20 21 22 24 25 27 28 29 30 32 35 40 45 49 52 54 56 57 57 57 57 58 59 60 61 62 64 66 70 74 76 77 77 78 78 79 78 78 77 75 72 70 68 68 69 71 72 72 70 69 68 69 70 70 70
24 18 14 14 14 14 16 16 17 17 17 15 13 10 8 6 5 5 6 6 7 9 10 12 15 17 19 20 20 20 20 21 22 24 26 27 29 31 32 34 37 41 46 52 57 60 61 61 61 61 60 59 59 60 61 62 63 64 66 70 74 77 79 80 80 81 81 81 80 78 77 74 72 70 70 71 72 74 74 73 72 71 71 71 71 71
21 17 15 14 15 16 17 18 18 17 16 14 11 8 6 5 5 6 7 8 9 10 13 16 18 20 22 22 22 21 21 23 24 26 28 30 32 35 37 41 44 49 54 60 64 66 67 66 64 63 62 61 61 61 62 64 65 66 68 71 74 78 80 81 82 82 84 83 82 80 78 76 74 72 72 73 74 76 77 76 74 73 73 73 73 73
20 17 15 15 16 17 18 18 18 17 15 11 8 6 4 4 5 6 8 9 11 13 16 19 21 22 23 23 24 25 25 26 28 30 32 34 37 40 43 48 53 58 62 65 68 70 71 70 68 66 64 63 63 63 64 66 68 69 71 72 74 77 80 82 82 84 85 84 84 82 80 77 75 73 72 74 76 78 80 79 78 76 74 74 75 75
18 16 16 17 18 19 19 19 17 15 12 9 6 5 4 5 6 7 9 10 13 16 18 21 22 23 23 24 26 28 30 32 33 35 36 38 41 45 50 56 61 66 69 70 71 72 73 72 71 69 67 66 66 66 66 68 69 72 73 74 75 77 80 81 82 84 86 85 85 84 82 79 76 74 73 74 76 79 81 82 81 79 76 76 76 76
17 17 18 18 19 20 19 18 16 12 9 6 5 4 5 6 7 9 10 12 15 18 20 21 22 23 24 25 28 31 34 36 38 40 42 44 47 51 56 62 67 71 74 75 74 74 74 74 73 72 71 70 69 69 68 69 71 73 74 75 76 78 79 80 81 83 86 86 86 85 84 80 77 74 74 74 76 79 82 82 82 82 79 78 77 76
17 18 19 19 20 19 18 16 13 9 6 5 4 5 6 7 9 10 12 15 18 20 22 22 22 22 23 26 29 32 36 39 42 44 47 51 55 59 64 68 72 76 77 78 78 77 76 75 74 73 73 74 73 73 72 71 72 73 74 75 77 79 80 80 80 82 85 86 86 86 84 82 78 76 76 76 76 78 81 83 84 83 81 80 79 78
18 19 19 20 19 18 16 13 9 6 4 4 5 6 8 9 10 12 15 18 20 21 22 22 23 23 24 26 28 31 34 37 41 46 51 56 62 67 71 74 77 79 80 80 81 80 80 77 76 74 74 75 76 76 75 73 72 72 74 76 78 80 81 81 81 82 84 86 86 86 85 83 81 80 80 78 78 78 80 83 84 84 82 81 80 80
18 19 20 19 18 16 12 9 6 5 4 5 6 8 9 10 12 15 18 20 21 22 22 23 24 26 27 28 29 30 32 35 39 44 50 58 64 70 74 76 78 80 82 82 83 84 83 80 77 75 74 76 77 77 76 74 73 73 75 77 79 81 82 82 82 82 84 85 86 86 86 84 84 83 82 80 79 78 78 81 83 84 83 82 82 82
19 19 19 18 15 12 8 6 5 5 5 7 8 9 10 12 15 18 20 21 22 22 23 24 26 28 30 31 32 32 33 36 40 44 50 56 62 66 70 72 74 76 79 81 83 84 85 83 80 77 74 74 75 75 74 73 74 75 78 79 81 82 83 83 83 83 84 85 86 86 86 85 85 84 84 82 81 79 77 78 81 84 84 84 84 84
19 19 18 15 11 8 5 5 5 6 7 8 9 10 13 15 18 20 21 22 22 23 24 26 27 29 31 33 34 35 37 41 45 49 53 57 60 62 64 65 67 70 74 77 80 82 85 86 84 79 74 72 70 70 68 70 72 76 80 82 82 83 84 84 84 84 84 85 86 86 86 86 85 85 84 84 82 80 77 77 78 81 84 84 84 85
19 18 15 11 8 5 4 5 6 7 8 9 11 13 16 18 20 22 22 23 23 25 26 28 30 31 32 35 37 40 43 46 50 54 57 59 60 61 61 62 64 66 69 72 74 77 82 85 86 83 76 70 65 62 62 65 70 76 82 83 84 84 84 84 84 84 85 85 85 86 86 86 86 85 85 85 84 82 79 77 77 79 82 84 85 86
18 15 11 8 5 4 5 6 7 8 9 11 13 16 19 21 22 23 23 24 25 27 29 31 32 34 35 38 42 46 51 53 56 58 59 60 61 62 63 64 65 66 66 66 68 69 73 78 82 84 81 70 62 58 58 62 68 74 82 84 85 85 85 85 85 85 85 85 85 85 85 85 85 84 84 86 86 85 82 79 77 78 80 82 85 86
Wind_Speed
21 21 22 23 23 24 25 26 27 28 28 29 30 31 31 32 33 34 35 35 35 35 35 36 36 36 37 38 39 40 41 42 43 44 45 46 47 48 48 49 50 51 52 53 54 55 55 56 56 55 55 53 52 51 49 47 45 43 42 40 39 37 36 35 35 34 34 34 34 34 34 35 35 36 36 36 36 36 35 35 34 34 33 33 33 32
22 22 22 23 24 24 25 26 27 28 28 29 30 31 32 33 34 35 35 36 36 36 36 36 37 37 38 38 39 40 42 43 44 45 46 47 47 48 49 50 51 51 53 54 55 55 56 56 56 55 54 53 51 49 47 45 44 42 40 39 37 36 35 35 34 34 34 34 34 34 35 35 35 36 36 36 36 36 35 35 35 34 34 33 33 33
23 23 23 24 24 25 25 27 28 28 29 29 30 31 32 33 34 35 35 36 36 36 37 37 38 38 38 39 40 41 42 43 44 45 46 47 48 49 50 50 51 52 53 54 55 56 56 56 55 54 53 52 50 48 46 44 42 40 39 38 36 35 35 34 34 34 34 34 34 34 35 35 35 36 36 36 36 36 36 35 35 35 34 34 34 33
23 24 24 24 25 26 26 27 28 29 29 30 30 31 32 33 34 34 35 35 36 37 37 38 39 39 40 40 41 42 43 44 45 46 47 48 49 50 51 51 52 53 54 55 56 56 56 56 55 54 52 51 49 46 44 42 41 39 38 37 36 35 35 34 34 34 34 34 35 35 35 35 35 36 36 36 36 36 36 36 36 36 35 35 34 34
24 24 25 25 26 26 27 28 29 29 30 30 31 32 32 33 33 34 35 35 36 37 38 39 39 40 41 41 42 43 44 45 46 47 48 49 50 51 52 52 53 54 55 56 57 57 56 55 54 53 51 49 47 45 43 41 40 39 38 37 36 35 35 35 35 35 35 35 35 35 35 35 36 36 36 37 37 37 37 37 37 37 36 36 35 35
25 25 25 26 26 27 28 29 29 30 30 31 31 32 32 33 33 34 35 35 36 37 39 39 40 41 42 43 43 44 44 45 46 48 49 50 51 52 52 53 54 55 56 57 57 57 56 55 53 52 50 48 46 44 42 41 39 38 38 37 36 36 36 36 36 36 36 36 36 36 36 36 36 37 37 37 37 38 38 38 38 38 37 37 36 36
26 26 26 26 27 27 28 29 29 30 30 30 31 32 32 33 33 34 35 35 36 38 39 40 41 42 43 44 44 45 45 46 47 48 49 51 52 52 53 54 55 56 56 57 56 56 55 54 52 50 49 47 45 43 41 40 39 38 38 37 37 37 37 37 37 37 37 37 37 37 37 37 37 37 37 38 38 38 38 39 39 38 38 37 37 36
26 27 27 27 27 28 29 29 30 30 30 30 31 31 32 33 33 34 35 36 37 38 39 40 41 43 44 45 45 46 46 47 48 49 50 51 52 53 54 55 55 56 56 56 56 55 54 52 51 49 47 45 43 42 41 40 39 39 38 38 38 38 38 38 38 38 37 37 37 37 37 37 37 38 38 38 38 39 39 39 39 38 38 38 37 37
27 27 27 28 28 28 29 29 30 30 30 31 31 31 31 32 33 33 34 35 37 38 39 40 41 43 44 45 46 46 47 47 48 49 50 52 53 54 54 55 55 55 55 55 54 53 52 51 49 47 46 44 42 41 40 40 39 39 39 38 38 38 38 38 38 38 38 38 37 38 38 38 38 38 38 38 38 38 39 38 38 38 38 38 37 37
27 27 28 28 29 29 29 29 30 30 31 31 31 31 32 32 32 33 34 35 36 37 39 40 41 42 44 45 45 46 47 47 48 49 51 52 53 54 54 54 54 54 54 53 53 52 50 49 47 46 44 43 41 40 40 40 39 39 39 39 39 39 39 38 38 38 38 38 38 38 38 38 38 38 38 38 38 38 38 38 38 38 37 37 37 36
27 28 28 28 29 29 29 29 29 30 31 31 32 32 32 32 33 33 34 35 36 37 38 40 41 42 43 45 45 46 46 47 48 50 51 52 53 54 54 53 53 52 52 52 51 50 49 47 46 44 43 42 41 40 40 40 39 39 39 39 39 39 39 38 38 38 38 38 38 38 38 38 38 38 38 38 38 37 37 37 37 37 37 36 36 36
27 28 28 29 29 29 30 30 30 30 31 31 32 32 33 33 34 34 35 35 36 37 38 40 41 42 43 44 45 46 46 47 47 49 50 52 53 53 53 52 51 50 50 50 49 48 46 45 44 43 42 41 40 40 40 40 39 39 39 39 39 39 38 38 38 38 38 38 38 38 38 38 38 38 38 37 37 37 37 36 36 36 36 36 35 35
28 28 29 29 29 29 29 30 30 31 31 32 32 33 34 34 35 35 35 36 37 38 39 40 41 43 44 45 46 46 46 47 47 48 49 50 52 52 51 50 48 48 48 47 47 45 44 43 42 41 40 40 40 40 40 40 40 39 39 39 39 38 38 38 38 38 38 38 38 38 38 38 38 37 37 37 36 36 36 36 35 35 35 34 34 34
28 29 29 29 29 29 29 30 30 31 32 32 33 33 34 35 35 36 36 37 38 39 40 41 42 43 44 46 46 47 47 47 47 47 48 49 50 50 49 48 47 46 45 45 45 44 42 41 41 40 40 40 40 40 40 40 39 39 39 39 38 38 38 38 38 38 38 38 38 38 38 38 38 37 37 36 36 35 35 34 34 34 34 33 33 32
29 29 29 29 29 29 30 30 31 32 32 33 33 34 34 35 35 36 37 38 39 39 40 41 42 43 44 46 47 47 48 47 47 47 47 48 49 49 48 46 45 45 44 43 43 42 41 40 40 40 40 40 40 40 40 40 39 39 38 38 38 38 38 38 38 38 38 38 38 38 38 38 37 37 36 35 35 34 34 33 33 33 32 32 31 31
29 29 29 29 29 29 30 31 32 32 33 33 33 34 35 35 36 37 37 38 39 40 41 42 42 43 45 46 47 47 48 48 48 47 46 46 47 48 47 45 44 43 43 42 41 41 40 40 40 39 40 40 40 40 40 39 39 38 38 38 38 38 38 38 38 39 39 39 38 38 38 37 37 36 36 35 34 33 33 32 32 32 31 31 30 30
29 29 29 29 29 29 31 32 32 33 33 33 34 34 35 36 37 37 38 39 40 41 42 42 43 44 45 46 47 48 48 48 48 47 46 45 46 46 45 44 42 41 41 41 40 40 39 39 40 40 40 40 40 40 39 39 38 38 38 38 38 38 38 39 39 39 39 39 38 38 38 37 37 36 35 34 34 33 32 32 31 31 30 30 29 29
30 29 29 29 29 30 32 32 32 32 33 33 34 35 35 36 37 38 39 40 41 42 43 43 44 45 45 47 48 49 49 49 49 48 46 45 44 45 44 42 40 39 39 39 39 39 39 39 39 39 40 40 39 39 39 38 38 38 38 38 38 39 39 39 39 39 39 39 39 38 38 37 37 36 35 34 33 33 32 31 31 30 30 29 29 28
30 30 29 29 30 31 32 32 32 32 32 33 34 35 36 37 38 39 40 41 41 42 43 44 45 45 46 47 48 49 50 50 49 48 46 44 44 43 43 41 39 38 38 38 38 38 39 39 39 39 39 39 39 38 38 38 37 37 38 38 38 39 39 39 39 39 39 39 39 38 38 37 36 36 35 34 33 32 31 31 30 30 29 29 28 27
30 30 30 30 31 31 32 32 31 32 32 33 34 35 36 37 38 39 40 41 42 43 43 44 45 46 46 48 49 50 51 51 50 48 46 44 42 42 41 39 37 36 36 36 37 37 38 38 39 39 38 38 38 37 37 37 37 37 37 38 38 38 38 39 39 39 39 39 38 38 38 37 36 35 34 33 32 32 31 30 30 29 29 28 27 27
30 30 30 31 31 31 31 31 31 31 32 33 34 35 36 37 38 39 40 41 42 43 43 44 45 46 47 48 49 50 51 51 50 48 46 44 41 40 39 38 36 35 35 35 36 36 36 37 38 38 37 37 36 36 36 36 37 37 37 38 38 38 38 38 38 38 38 38 38 38 37 36 36 35 34 33 32 31 30 29 29 28 28 27 27 26
30 30 30 31 31 30 30 30 31 31 32 33 35 36 37 38 39 40 40 41 42 42 43 44 45 46 47 48 49 50 51 50 49 47 46 43 41 40 39 38 36 35 34 34 35 35 35 36 36 36 36 35 35 35 35 36 36 37 37 37 37 37 37 37 37 37 37 37 37 37 36 36 35 34 33 32 31 30 29 28 28 27 27 26 26 25
30 30 30 30 30 30 30 30 31 31 32 34 35 36 37 38 39 40 41 41 42 42 43 44 45 46 47 47 48 50 50 50 49 47 45 41 40 39 39 38 36 35 34 33 34 34 34 34 34 34 34 34 34 34 34 35 36 36 36 37 37 37 37 36 36 36 36 36 36 35 35 34 33 33 32 31 30 29 28 27 26 26 25 25 25 24
30 30 30 29 29 29 29 30 31 32 33 34 35 36 37 38 39 40 41 41 42 42 43 44 45 46 47 47 47 48 48 48 47 46 43 41 39 38 38 37 36 35 35 34 33 33 33 32 32 32 32 32 33 33 34 34 35 35 35 36 36 36 35 35 35 35 35 35 34 34 33 33 32 31 30 29 28 27 26 26 25 24 24 23 23 23
29 29 29 28 28 28 29 30 31 32 33 34 35 36 38 38 39 40 41 41 42 43 43 44 45 46 46 46 46 46 47 47 45 43 42 40 39 38 37 37 36 36 35 34 33 32 31 31 30 30 30 31 32 32 33 33 34 34 34 34 34 34 34 34 34 33 33 33 33 32 32 31 30 29 28 27 26 26 25 24 23 23 23 22 22 21
29 28 28 27 27 28 29 31 32 33 33 34 35 37 38 39 40 40 41 42 43 43 44 45 45 45 45 45 45 45 46 45 44 42 40 39 38 38 37 37 36 36 36 35 33 32 31 30 30 30 30 30 31 32 33 33 33 33 33 33 33 33 33 32 32 32 32 31 31 31 30 29 28 27 27 26 25 24 23 23 22 22 21 21 21 20
27 27 26 26 27 28 30 31 33 34 34 35 36 37 38 39 40 41 41 42 43 44 45 46 46 46 45 44 43 43 44 44 42 40 39 38 38 37 37 37 37 37 36 35 33 32 31 31 31 31 31 31 31 32 33 33 33 33 33 33 33 33 32 32 31 31 31 30 30 29 29 28 27 26 25 24 23 23 22 22 21 21 21 20 20 20
26 25 25 26 27 29 30 32 33 34 35 36 37 38 39 40 40 41 42 43 44 45 45 46 46 46 45 43 42 42 43 42 41 40 39 38 37 37 37 38 38 37 37 36 34 32 30 30 31 32 32 33 33 33 33 33 33 33 33 33 33 32 32 31 31 30 30 29 29 28 27 26 25 24 23 23 22 22 22 21 21 20 20 20 19 19
23 23 24 26 28 29 31 32 33 35 36 37 38 39 39 40 41 41 42 43 44 45 45 46 46 45 45 43 42 41 41 41 41 40 39 38 37 37 37 37 37 37 37 36 35 33 31 30 31 32 33 34 34 34 34 33 33 33 33 33 33 32 32 31 31 30 29 29 28 27 26 25 24 23 22 22 22 21 21 21 21 21 20 20 19 19
22 22 24 26 28 30 31 33 34 35 36 37 38 39 40 40 41 42 43 44 45 45 45 45 45 45 44 43 42 41 40 40 40 39 39 38 37 37 38 38 38 37 37 36 36 35 33 31 31 32 33 34 34 34 34 34 33 33 33 33 33 33 32 32 31 30 29 29 28 27 26 24 23 22 21 21 21 21 21 21 21 21 20 19 19 19
20 22 24 26 28 30 31 33 34 35 36 37 38 39 40 41 41 42 43 44 45 45 45 45 44 44 43 42 40 40 40 40 40 39 38 38 38 38 37 38 38 38 37 36 36 36 35 34 33 33 33 34 34 34 34 34 33 33 34 34 34 33 33 32 32 31 30 29 28 27 25 24 23 21 21 21 21 21 21 22 21 21 20 19 18 18
19 22 24 27 28 30 32 33 34 35 36 37 38 39 40 41 42 43 44 45 45 46 45 45 44 43 41 40 39 38 39 40 40 39 38 38 38 38 38 37 37 38 37 36 36 36 36 36 35 35 34 34 34 34 34 34 34 34 34 34 34 34 34 33 33 32 31 30 28 27 25 23 22 21 20 20 20 21 21 21 21 20 19 18 18 17
19 22 24 27 29 30 32 33 34 35 36 37 38 39 40 41 42 44 45 45 46 45 45 44 43 42 40 39 38 37 38 38 39 39 39 38 38 38 38 37 37 37 37 37 37 36 36 36 36 35 35 34 34 34 34 34 34 34 34 35 35 35 35 34 33 32 31 30 29 27 25 23 21 20 19 19 19 19 20 19 19 18 18 17 17 16
19 22 25 27 29 30 32 33 34 35 36 37 38 39 41 42 43 44 45 46 46 45 44 43 42 40 39 38 37 37 37 37 38 38 39 38 38 38 38 37 37 37 37 37 37 37 37 37 36 36 35 35 34 34 34 34 34 35 35 35 35 35 35 35 34 33 32 31 29 27 25 23 21 19 18 18 18 18 18 18 17 17 16 16 16 15
19 23 25 28 29 31 32 33 34 35 36 37 38 40 41 43 44 45 45 45 45 44 43 42 40 39 38 38 37 37 37 37 38 38 38 38 38 38 38 37 37 37 37 37 37 37 37 37 37 36 36 35 35 34 34 34 34 35 35 35 35 36 35 35 34 33 32 31 29 27 25 22 20 18 17 17 17 17 17 16 15 15 14 14 15 15
20 23 26 28 30 31 32 33 34 35 36 38 39 40 41 43 44 44 44 44 43 42 41 40 39 38 37 37 37 37 37 37 38 38 38 38 38 38 37 37 37 37 37 38 38 37 37 37 36 36 36 35 35 35 35 35 35 34 34 34 35 35 35 35 34 33 32 31 29 27 25 23 20 18 17 17 17 17 16 15 14 13 13 13 14 14
21 24 27 29 30 31 32 33 34 35 36 38 39 40 42 42 43 43 43 42 41 40 39 38 38 37 37 37 37 37 37 37 38 38 38 38 37 37 37 37 37 37 37 37 38 38 37 37 36 36 36 36 36 37 37 37 36 35 34 33 33 34 34 34 34 33 32 31 29 27 25 23 20 18 17 16 16 16 16 15 13 12 12 12 12 13
22 25 27 29 30 31 32 33 34 35 36 38 39 40 41 42 42 41 41 40 39 38 37 37 37 37 37 37 37 37 37 37 37 38 38 38 37 37 37 37 37 37 37 37 37 37 37 37 36 36 36 37 37 38 38 38 38 36 34 33 32 32 33 33 33 32 31 30 29 27 25 23 21 18 17 16 15 15 15 14 13 12 11 11 11 12
22 25 27 29 30 31 32 33 34 35 37 38 39 40 40 41 40 40 39 38 37 36 36 36 36 37 37 37 37 37 37 37 37 37 38 38 38 37 37 37 37 37 37 36 36 36 36 36 36 37 37 38 39 39 40 40 39 37 35 33 32 31 31 31 31 31 30 29 28 26 25 23 21 18 17 15 14 14 14 13 12 11 10 10 10 10
23 26 28 29 30 31 32 33 34 36 37 38 39 40 40 39 39 38 37 36 35 35 35 36 36 36 37 37 37 37 37 38 38 38 38 38 38 37 37 37 37 36 36 36 35 35 35 36 37 37 38 39 40 41 41 40 40 38 36 34 32 30 30 30 29 29 28 28 27 25 24 22 20 18 17 15 14 13 12 12 12 11 10 9 9 9
24 26 28 29 30 31 32 33 35 36 37 38 39 39 38 38 37 36 35 35 34 34 34 35 36 36 37 37 37 37 37 37 38 38 38 38 37 37 37 36 36 35 35 34 34 34 35 36 37 39 40 41 41 42 41 40 39 38 36 34 32 30 29 28 28 28 27 26 25 24 23 22 20 18 17 15 13 12 11 11 11 10 9 9 8 8
24 26 28 29 30 31 32 34 35 36 37 38 38 38 37 36 35 34 33 33 33 33 33 34 34 35 35 36 37 37 37 37 37 37 37 37 37 37 36 36 35 34 34 33 33 34 35 36 38 40 41 42 42 42 41 40 38 37 36 34 32 30 29 27 27 26 26 25 24 23 21 20 19 18 16 14 13 12 11 10 10 9 9 8 8 7
25 26 28 29 30 31 33 34 36 37 38 38 38 37 36 34 33 33 32 32 32 32 32 33 33 33 33 34 36 37 37 37 36 36 36 36 36 36 35 34 34 33 33 33 34 35 36 38 39 40 41 42 42 41 40 38 37 36 35 33 32 30 28 27 25 25 24 23 22 21 20 19 18 17 16 14 12 11 10 9 9 9 8 8 7 6
25 26 27 29 30 32 33 35 36 37 37 37 36 35 34 33 32 32 32 32 32 32 32 32 33 33 33 33 34 35 36 36 36 35 35 35 35 34 34 33 33 33 33 33 34 36 38 39 40 41 41 41 40 39 38 37 35 34 33 32 30 29 27 26 25 24 22 21 20 19 18 18 17 16 15 13 12 10 9 8 8 8 8 8 7 6
25 26 28 29 31 32 34 35 36 36 36 35 34 33 33 32 32 32 32 32 32 32 32 32 32 33 33 33 33 33 34 34 34 34 34 33 33 33 33 33 33 33 34 35 36 37 38 39 40 41 40 39 38 37 35 34 33 32 31 30 28 27 26 25 24 23 21 20 18 17 16 16 16 15 14 13 11 10 9 8 7 7 7 7 7 6
25 26 28 30 31 33 34 35 36 36 35 34 33 32 32 32 32 32 32 32 32 32 32 33 33 33 33 33 33 33 32 32 32 32 32 32 32 32 32 32 33 34 35 36 38 38 39 39 39 39 38 36 35 34 33 32 31 30 29 28 27 25 25 24 23 21 20 19 17 16 15 15 14 14 13 12 11 9 8 7 6 6 6 7 7 6
25 27 29 30 32 33 34 35 35 34 33 32 31 31 31 31 31 32 32 31 31 32 32 33 33 33 33 33 33 33 32 32 32 31 31 31 31 31 32 33 34 35 37 38 38 38 38 37 37 36 35 33 32 31 30 29 28 28 27 26 25 24 23 22 21 20 19 18 16 15 13 13 12 12 12 12 10 9 7 6 6 5 5 6 6 5
26 27 29 31 32 33 34 34 33 32 31 30 30 31 31 31 31 31 31 32 32 32 33 33 33 33 33 33 33 32 32 32 32 32 31 31 31 32 32 34 36 37 38 39 38 37 35 34 33 32 32 31 29 28 27 26 26 26 26 25 24 23 22 21 20 19 18 17 15 14 12 11 10 10 11 11 10 9 7 6 5 5 4 5 6 5
26 28 30 31 32 32 32 31 31 30 29 29 30 30 30 30 30 30 31 32 32 33 33 33 33 33 33 33 32 32 32 32 32 32 31 31 32 33 34 36 38 39 40 39 37 35 32 30 29 29 29 29 28 27 26 25 25 25 25 25 24 22 21 20 19 18 17 16 15 13 11 10 9 9 10 10 9 9 8 6 5 4 3 4 4 5
27 28 30 31 31 31 30 29 29 28 28 29 29 30 30 30 30 31 31 32 33 33 33 33 33 33 33 32 32 32 32 32 32 32 32 33 34 35 37 39 40 40 40 38 36 33 29 26 25 26 27 28 28 27 26 25 25 24 24 24 23 22 20 19 18 18 17 16 14 13 11 10 9 9 9 9 9 9 8 7 5 4 3 3 3 4
27 29 30 30 30 29 28 28 27 27 28 28 29 29 29 30 31 31 32 33 33 33 33 33 32 32 32 32 32 32 32 32 33 33 34 35 36 38 40 41 41 40 39 37 34 31 28 25 23 23 26 27 28 28 27 26 25 24 23 23 22 21 20 19 18 18 17 16 15 13 12 10 9 8 9 9 9 9 9 8 6 4 3 2 2 2
Wind_Direction
309 308 307 305 304 303 303 303 304 305 306 307 308 308 309 310 311 311 311 311 311 312 312 313 314 315 316 316 317 317 317 317 317 318 318 318 318 319 319 320 320 320 321 321 321 322 322 323 323 323 323 323 323 323 323 322 322 322 322 322 321 321 321 321 320 319 318 317 316 315 314 314 313 313 313 313 313 313 313 313 312 312 311 310 309 308
310 309 307 305 303 302 302 303 303 305 306 306 307 308 309 310 311 311 311 311 312 312 313 313 314 315 316 317 317 317 317 317 318 318 318 318 318 319 319 320 320 321 321 321 322 322 323 323 323 323 323 323 323 323 323 323 323 322 322 322 321 321 321 320 319 319 318 316 315 314 314 313 313 312 312 312 312 312 312 312 312 312 311 310 309 308
309 307 305 303 302 301 302 302 303 304 305 306 307 309 310 311 311 311 312 312 312 313 313 314 315 315 316 317 317 317 317 318 318 318 318 318 319 319 320 320 321 321 321 322 322 322 323 323 323 324 324 324 323 323 323 323 323 323 322 322 322 321 321 320 319 318 317 316 315 314 314 313 313 312 312 312 312 312 312 312 312 312 311 310 309 308
308 305 303 302 301 301 302 302 303 303 305 306 308 309 310 311 311 311 311 312 312 313 313 314 315 316 316 317 317 317 318 318 318 318 319 319 319 320 320 321 321 321 322 322 322 323 323 324 324 324 324 324 324 324 324 324 323 323 323 322 322 321 321 320 319 318 317 316 316 315 314 314 313 313 313 313 313 313 313 313 312 312 311 311 310 308
306 303 301 300 300 300 301 302 302 303 304 306 308 309 310 311 311 311 311 311 312 313 314 314 315 316 316 317 317 318 318 319 319 319 319 319 320 320 321 321 322 322 322 323 323 323 324 324 324 324 324 324 324 324 324 324 324 323 323 322 322 322 321 320 320 319 318 317 317 316 315 315 314 314 314 314 313 313 313 313 313 312 312 311 310 309
304 302 300 299 299 299 301 301 302 303 304 306 307 309 310 310 310 310 311 312 313 314 314 315 316 316 317 317 318 318 319 319 320 320 320 320 320 321 322 322 323 323 323 323 323 324 324 324 324 324 324 324 325 325 325 324 324 323 323 323 322 322 322 321 321 320 319 319 318 317 316 316 315 315 315 314 314 314 313 313 313 312 312 312 311 310
304 302 300 299 298 299 300 300 301 302 304 306 307 308 309 310 310 310 311 312 313 314 315 315 316 316 317 317 318 319 320 320 321 321 321 321 321 322 322 323 323 323 323 323 324 324 324 324 324 324 324 325 325 325 325 324 324 323 323 323 323 322 322 322 321 321 320 320 319 318 318 317 317 316 316 315 315 314 314 313 313 313 312 312 312 311
303 301 299 297 297 298 298 299 300 302 303 306 307 308 309 309 310 311 311 312 313 314 315 316 316 317 317 318 319 320 320 321 321 321 321 321 322 322 323 323 324 324 323 324 324 324 324 324 324 324 325 325 325 325 325 324 324 323 323 323 323 323 323 322 322 321 321 320 320 319 318 318 317 317 316 315 315 314 314 313 313 313 313 313 313 312
302 299 297 295 294 296 297 298 300 301 303 305 307 308 308 309 310 310 311 312 313 314 315 316 317 317 318 318 319 320 321 321 322 322 321 321 322 323 323 324 324 324 323 323 324 324 324 324 324 324 325 325 325 325 324 324 323 323 323 323 323 323 323 323 322 322 321 321 320 319 319 318 317 317 316 316 315 315 314 314 314 314 314 314 314 314
301 297 295 294 294 295 296 298 300 301 303 305 307 307 308 309 309 310 311 312 313 314 315 316 316 317 317 318 319 320 321 321 322 322 322 322 322 323 323 324 324 324 323 323 324 324 324 324 324 324 324 324 325 324 324 323 323 323 323 324 324 324 323 323 322 322 321 321 320 319 319 318 318 317 316 316 316 315 315 315 315 316 316 316 316 315
298 295 293 292 293 294 296 298 300 302 304 305 307 307 308 308 309 310 311 312 313 314 315 315 316 317 317 317 318 319 320 321 322 322 322 322 323 323 323 323 323 323 323 323 323 323 324 323 323 324 324 324 324 324 323 323 323 323 323 324 324 324 323 323 322 322 321 320 320 319 319 318 317 317 317 317 317 317 317 317 317 317 317 317 317 317
295 293 292 291 292 293 296 298 301 303 305 306 307 308 308 309 309 310 311 312 313 314 315 315 316 316 317 317 318 319 321 322 323 323 323 322 323 323 323 323 323 323 323 323 323 323 323 323 323 323 324 324 323 323 323 323 323 323 324 324 324 323 323 322 322 321 321 320 320 319 318 318 318 318 318 318 318 318 319 319 319 319 318 318 318 318
294 292 291 291 292 294 296 299 302 304 305 306 307 308 309 309 309 310 311 313 314 315 315 316 316 317 317 317 318 319 321 322 323 323 323 322 322 323 323 323 323 323 323 323 322 322 323 323 323 323 323 323 323 323 323 323 323 324 324 324 324 323 322 322 321 321 321 320 320 319 319 319 319 319 319 320 320 320 320 320 319 319 319 318 318 318
293 292 292 293 294 296 297 300 302 304 305 306 307 308 308 309 310 311 312 313 314 315 316 316 317 317 318 318 319 320 321 322 323 323 323 322 322 322 323 323 322 322 323 322 322 322 322 322 322 323 323 322 322 322 323 323 323 324 324 324 323 323 322 322 321 321 320 320 320 319 319 319 320 320 321 321 321 321 321 320 320 319 319 318 318 317
293 293 292 293 295 297 299 301 303 305 306 306 307 308 308 309 310 311 313 314 315 316 316 317 317 318 318 318 319 320 321 322 323 323 323 322 322 322 323 323 323 323 323 323 322 322 322 322 322 322 322 322 322 323 323 323 324 324 324 324 323 322 322 321 321 321 321 320 320 320 320 320 321 321 322 322 322 321 321 320 319 319 318 318 317 317
294 293 293 294 296 298 301 303 304 305 306 306 307 307 308 309 311 312 313 314 315 316 316 317 317 318 318 319 319 320 321 322 323 323 324 323 322 323 324 324 323 323 323 323 322 322 322 322 322 323 323 323 323 323 323 324 324 324 324 324 323 322 322 322 321 321 321 321 321 321 321 321 322 322 322 322 322 322 321 320 319 318 318 317 317 317
295 294 293 294 297 299 302 304 305 305 306 306 306 307 308 310 311 313 314 315 315 316 316 317 318 318 319 319 319 320 321 322 323 324 324 324 323 323 324 324 324 324 323 323 323 323 322 322 323 323 323 323 323 323 324 324 324 324 324 324 323 323 322 322 322 321 321 321 321 322 322 322 322 322 323 323 322 322 321 320 319 318 318 317 317 318
296 294 294 295 297 300 303 305 305 305 305 306 307 308 309 310 312 313 314 315 316 316 317 318 318 319 320 320 320 320 321 322 323 324 325 325 325 324 325 325 325 325 324 323 323 323 323 323 323 323 323 323 323 324 324 324 325 325 324 324 323 323 322 322 322 322 322 322 322 322 322 323 323 323 323 323 322 322 321 320 319 319 318 318 318 319
297 295 295 296 299 301 304 305 305 305 306 306 307 309 310 312 313 314 315 316 316 317 318 319 319 320 320 320 320 321 322 323 324 325 326 327 326 325 326 326 326 325 324 324 323 323 323 323 323 323 323 323 324 324 324 325 325 325 324 324 323 323 322 322 322 322 322 322 322 323 323 323 323 323 323 323 322 322 321 320 319 319 319 319 319 320
298 297 296 297 300 302 304 304 305 305 306 307 308 310 311 312 313 314 315 316 316 317 318 319 320 320 321 321 321 321 322 323 324 326 327 327 327 326 326 326 326 326 325 324 323 323 323 323 323 323 323 324 324 324 325 325 325 325 324 324 323 322 322 322 322 322 322 322 323 323 323 323 323 323 323 323 322 321 321 320 320 319 320 320 320 320
297 297 297 298 300 302 303 304 305 306 307 308 309 310 311 312 313 314 315 316 317 318 319 320 320 321 321 322 322 322 323 324 325 326 327 328 327 326 326 326 326 326 325 324 323 323 323 322 323 323 323 324 324 325 325 325 325 324 324 323 323 322 322 322 322 322 322 323 323 323 323 323 323 323 322 322 322 321 320 320 320 320 320 321 321 322
296 296 297 299 300 301 303 304 305 306 307 308 310 311 312 313 313 314 315 316 317 318 319 320 321 322 322 322 322 323 323 324 325 326 327 328 327 326 326 326 326 326 325 325 324 323 323 323 323 324 324 324 325 325 325 325 325 324 323 323 322 322 322 322 322 322 322 323 323 323 323 323 323 322 322 321 321 321 320 320 320 321 322 322 323 323
296 297 298 299 300 301 303 304 305 306 308 309 310 311 312 313 314 314 315 316 317 318 320 321 322 322 323 323 323 324 324 325 325 326 326 327 327 326 325 326 326 326 326 325 325 324 324 324 324 324 325 325 325 325 325 324 324 324 323 322 322 322 322 322 322 322 322 323 323 323 323 323 322 322 321 321 320 320 320 321 321 322 323 324 324 325
296 297 298 299 301 302 304 305 306 307 308 310 310 311 312 313 314 315 316 317 318 319 320 321 322 323 324 324 324 324 324 325 325 325 326 327 327 326 326 326 326 327 326 327 327 326 326 325 325 325 325 325 325 324 324 324 324 323 323 322 322 322 322 322 322 323 323 323 323 324 323 323 322 321 320 320 320 320 320 321 322 324 325 326 326 326
296 297 298 299 301 303 304 305 306 307 309 309 310 311 312 313 314 315 316 317 318 319 321 322 323 324 324 325 324 324 324 324 324 325 326 327 327 326 325 326 326 327 327 328 328 328 327 326 325 325 325 325 324 324 324 324 324 323 323 322 322 322 322 323 323 323 324 324 324 324 324 323 322 321 320 320 320 320 321 322 324 325 327 328 328 328
295 297 298 300 302 304 304 305 306 307 308 309 310 311 312 313 314 315 317 318 319 321 322 323 324 324 325 325 325 324 323 324 324 325 326 326 327 326 325 326 327 328 328 329 330 330 329 327 326 325 325 325 325 325 325 325 325 324 324 323 323 323 323 324 324 325 325 326 326 326 325 324 323 322 321 320 320 321 322 324 326 328 329 330 330 329
295 296 299 302 303 304 305 306 307 308 309 310 311 312 313 314 315 317 318 320 321 322 323 324 324 325 325 325 325 324 323 324 324 325 326 326 327 326 326 327 327 328 329 330 330 330 329 328 327 326 327 327 327 327 327 327 327 326 325 325 325 325 325 325 326 327 327 327 327 327 326 325 324 323 322 322 321 322 324 326 329 330 332 332 331 330
294 297 301 303 304 305 306 307 308 309 310 311 312 313 314 316 317 318 320 321 322 323 323 324 324 325 325 325 325 324 324 324 324 325 326 327 327 327 327 328 328 329 330 330 330 330 330 329 328 328 328 329 330 330 329 329 328 328 327 326 326 326 327 327 328 328 329 329 329 329 328 327 326 325 324 323 323 324 326 328 331 333 334 333 332 330
296 300 303 304 305 306 307 308 309 310 312 313 314 315 316 317 319 320 321 322 323 323 324 324 325 325 326 326 326 325 324 324 325 326 327 328 328 328 329 329 329 329 330 330 330 330 330 330 330 330 330 331 331 332 331 331 330 329 328 328 328 328 328 328 329 330 330 331 331 331 330 329 328 327 326 325 325 326 328 330 333 334 335 334 333 332
298 302 304 305 306 307 308 309 310 311 312 313 314 316 317 318 320 321 322 323 323 324 324 325 325 326 326 326 326 326 324 324 325 326 328 328 329 329 330 330 330 330 331 331 330 329 330 331 332 333 333 333 333 333 332 332 331 330 329 329 328 329 329 329 330 331 332 332 333 333 332 332 330 329 328 327 327 328 330 332 333 335 335 335 334 333
300 303 305 306 307 308 309 310 311 312 313 314 315 316 318 319 320 321 322 323 324 324 325 325 326 326 326 327 327 326 325 325 326 327 329 329 330 330 331 331 331 331 331 332 331 330 330 330 332 334 335 335 335 334 333 333 332 331 330 330 329 329 329 330 330 331 332 333 334 335 334 333 332 330 329 329 329 329 331 332 333 334 334 334 334 333
301 304 305 306 308 309 310 311 312 313 314 315 316 317 319 320 321 322 323 323 324 325 325 326 326 327 327 328 328 327 326 326 327 328 330 330 331 331 332 332 332 332 332 332 332 331 330 330 332 334 336 337 336 335 334 334 333 332 331 330 330 329 329 330 330 331 332 334 335 335 335 335 334 332 331 330 329 329 329 330 331 332 333 333 334 334
303 305 307 308 309 310 311 312 313 314 315 316 317 319 320 321 322 323 323 324 325 325 326 327 327 327 328 328 328 328 327 327 328 329 330 331 332 332 333 333 333 333 332 332 332 332 331 331 332 333 335 337 337 337 335 335 334 333 332 331 330 329 329 329 330 331 332 333 334 335 336 336 335 333 331 329 327 326 327 327 328 330 331 332 334 335
306 307 308 309 310 310 311 312 313 315 316 318 319 320 321 322 323 324 324 325 326 326 326 327 327 328 328 328 329 328 328 328 328 330 331 332 333 333 334 334 334 333 333 332 332 332 332 332 333 334 335 337 338 337 337 336 335 334 332 331 330 329 329 328 329 329 330 331 333 334 335 336 335 333 330 326 324 323 323 324 326 328 330 332 334 336
310 310 310 310 310 311 312 313 315 316 318 319 320 321 322 323 324 325 325 326 326 327 327 327 328 328 328 329 329 329 329 329 330 331 332 333 333 334 334 335 335 334 333 333 333 333 333 333 334 334 335 336 337 337 337 336 335 334 333 331 330 328 327 327 327 328 328 329 331 332 334 335 334 332 328 324 321 320 321 323 325 328 330 333 336 338
312 311 310 310 311 312 313 315 317 318 320 321 322 323 323 324 325 325 326 327 327 327 327 328 328 328 329 330 330 330 330 331 331 332 332 333 334 335 335 335 335 335 334 334 333 333 333 333 334 335 335 336 337 337 337 336 335 334 333 331 329 327 326 325 325 326 326 327 329 330 332 333 333 331 328 324 321 320 320 322 325 328 332 336 339 341
314 312 311 311 312 313 315 317 318 320 321 322 323 324 324 325 325 326 326 327 327 327 328 328 328 329 330 330 331 331 331 332 332 332 333 334 335 335 336 335 336 336 336 335 334 334 333 333 334 335 335 336 336 336 336 335 334 333 332 330 328 326 325 324 324 324 325 326 326 328 330 331 332 331 329 325 322 321 320 321 324 328 334 339 342 345
314 312 311 312 313 315 317 318 320 321 322 323 324 324 325 325 326 326 327 327 327 328 328 329 329 330 331 331 332 332 332 332 333 333 334 335 335 336 336 336 336 336 336 336 335 334 334 334 334 335 335 336 336 335 334 334 333 332 332 330 328 326 325 324 323 323 323 324 324 325 327 329 330 331 329 327 324 322 321 321 323 327 334 340 345 348
315 313 312 313 314 316 318 320 321 322 323 324 324 325 325 326 326 327 327 328 328 329 329 330 330 331 331 332 332 333 333 333 334 335 335 336 336 336 337 337 336 336 336 336 336 335 334 334 334 334 335 335 335 334 333 333 332 332 332 331 329 327 325 323 322 322 322 322 322 323 325 327 329 330 330 328 326 323 321 321 322 326 332 339 345 349
315 313 313 314 316 318 320 321 322 323 324 324 325 325 326 326 327 327 328 329 330 330 331 332 332 332 332 332 333 333 334 335 335 336 336 336 337 337 337 337 337 336 336 336 336 336 335 334 334 334 334 334 333 333 332 331 331 332 332 332 330 328 325 323 322 321 320 320 321 322 323 325 327 329 330 330 328 325 323 322 322 324 329 336 343 350
315 314 314 316 318 319 321 322 323 323 324 325 325 326 327 327 328 329 330 330 331 332 333 333 333 333 333 333 334 334 335 336 337 337 337 337 337 337 337 337 337 337 336 336 336 336 336 335 334 333 333 332 332 332 331 331 331 332 332 332 331 330 327 324 322 321 320 319 319 320 322 324 326 328 330 332 331 329 326 323 322 323 325 332 340 348
314 315 316 318 320 321 322 323 323 324 325 325 326 327 327 328 329 330 331 332 332 333 333 334 334 334 334 334 335 336 337 338 338 338 337 337 336 336 336 336 337 337 337 337 337 336 336 335 334 332 332 331 331 330 330 331 331 332 332 333 332 331 328 325 322 320 319 319 319 319 321 323 325 327 329 332 334 333 331 327 323 322 324 328 335 344
315 316 318 320 321 322 323 323 324 325 325 326 327 328 329 330 331 332 332 333 334 334 334 334 335 335 335 336 337 337 338 338 339 338 337 336 336 336 336 336 337 337 338 338 337 337 336 334 333 332 331 330 330 330 330 331 332 333 333 333 333 331 329 326 323 321 319 318 318 319 320 322 324 326 328 331 335 337 336 333 328 324 322 325 330 340
316 318 320 321 322 323 323 324 325 326 327 328 329 329 330 331 332 334 334 335 335 335 335 336 336 337 337 339 339 339 339 338 338 337 336 336 335 336 336 337 338 338 339 339 338 337 336 334 332 331 330 329 329 330 330 331 332 333 334 334 334 332 330 328 325 323 320 319 319 319 320 321 323 324 325 329 334 339 342 341 335 329 324 322 325 333
318 320 321 322 323 324 324 325 326 327 328 329 330 331 332 333 334 335 336 336 336 336 337 337 338 338 339 341 341 340 339 338 337 336 336 336 336 337 338 338 339 339 339 339 338 337 335 333 331 330 329 329 329 329 331 332 334 335 336 336 335 334 332 330 328 326 323 322 321 320 320 320 320 320 321 324 331 339 346 349 345 336 326 321 321 326
321 322 323 324 324 325 326 327 327 329 330 331 332 333 334 335 336 337 337 337 338 338 338 339 340 341 341 341 341 340 338 337 336 336 336 337 337 338 339 340 340 340 340 339 338 336 334 333 331 330 329 328 329 330 332 334 335 337 338 338 338 336 335 333 331 329 327 326 324 323 321 319 317 316 316 319 326 335 347 354 354 345 332 321 318 320
324 324 325 325 326 327 327 328 329 331 332 333 334 335 336 337 337 338 338 339 339 340 340 341 342 342 342 341 340 339 338 336 336 336 337 338 338 339 340 340 341 340 339 338 337 336 334 332 331 330 329 329 329 331 333 336 339 340 341 341 341 340 339 337 335 333 331 330 328 326 322 318 314 311 311 314 319 328 341 354 0 355 338 323 316 317
326 326 326 327 327 328 329 330 331 333 334 335 336 337 338 338 339 339 339 340 341 342 342 343 344 343 343 342 340 339 338 337 336 337 337 338 339 340 340 340 340 339 339 338 337 336 335 333 331 330 330 330 331 333 337 340 343 345 345 345 344 343 343 342 340 338 336 335 333 329 325 318 312 308 307 309 312 318 329 346 1 3 348 327 317 316
327 327 328 328 329 330 331 332 334 335 336 337 338 338 339 339 340 341 341 342 343 344 345 345 345 344 343 342 341 340 339 338 338 339 339 340 340 340 340 340 339 339 338 338 338 338 337 335 333 332 332 332 334 336 340 345 348 350 350 348 347 347 347 346 344 343 342 340 338 335 329 323 314 308 304 304 305 308 317 331 351 6 3 338 322 317
329 328 329 329 331 332 333 335 336 337 338 339 340 340 340 341 342 343 344 345 345 346 346 346 345 345 344 343 342 341 341 341 341 341 342 342 342 341 340 340 339 339 339 339 340 341 341 340 337 334 334 334 336 338 342 348 352 354 354 352 351 350 350 351 350 349 348 347 344 341 336 329 319 310 303 298 298 301 307 318 336 358 12 356 330 321
329 330 330 332 333 335 336 337 338 339 340 341 341 342 343 344 345 345 346 347 347 348 347 347 346 346 345 344 343 343 343 343 343 343 343 343 343 342 341 340 339 339 340 340 341 343 344 344 342 339 337 336 337 340 344 348 353 356 358 357 355 354 355 356 356 355 354 353 351 348 344 337 325 311 300 294 291 293 298 306 319 343 6 9 346 327